[[{"header":{"parameterUnit":"m.s-1","parameterCategory":1,"la1":30.2991,"la2":30.254,"lo1":-89.0895,"lo2":-89.0444,"dy":0.0017,"dx":0.0017,"nx":28,"ny":28,"refTime":"2024-03-24T03:00:00:Z","depth":0,"parameterNumber":2,"parameterNumberName":"U-component_of_WINDS"},"data":[0,0,0,0,0,0,0,0,0,0,0,0,0,0,0,0,0,0,0,0,0,0,0,0,0,0,0,0,0,0,0,0,0,0,0,0,0,0,0,0,0,0,0,0,0,0,0,0,0,0,0,0,0,0,0,0,0,0,-4.0703,-4.0704,0,-4.075,-4.075,-4.0751,-4.0612,-4.0608,-4.0603,-4.0599,-4.065,-4.0655,-4.066,0,0,0,0,0,0,0,0,0,0,0,0,0,-4.0494,-4.0498,-4.0703,-4.0704,-4.0704,-4.075,-4.075,-4.0751,-4.0613,-4.0608,-4.0602,-4.0598,-4.0648,-4.0654,-4.0661,0,0,0,0,0,0,0,0,0,0,0,0,0,-4.0567,-4.05,-4.0703,-4.0641,-4.0635,-4.075,-4.075,-4.0751,-4.0614,-4.0607,-4.0601,-4.0595,-4.0646,-4.0654,-4.0662,-4.0839,0,0,-4.0686,-4.0689,0,0,0,0,0,0,0,0,-4.0563,-4.0575,-4.0649,-4.0645,-4.064,-4.0668,-4.0695,-4.0781,-4.0615,-4.0622,-4.0599,-4.0592,-4.0661,-4.0668,-4.0691,-4.0841,-4.0843,-4.0687,-4.0691,-4.0695,-4.0697,0,0,0,0,0,0,0,-4.0558,-4.0572,-4.0722,-4.065,-4.0645,-4.061,-4.0614,-4.0711,-4.0677,-4.0621,-4.0611,-4.0618,-4.0657,-4.0683,-4.0691,-4.0844,-4.0686,-4.0694,-4.0698,-4.0702,-4.114,-4.1147,0,0,0,0,0,0,-4.0561,-4.0569,-4.072,-4.0723,-4.0585,-4.0619,-4.0623,-4.0666,-4.0676,-4.0671,-4.0624,-4.0612,-4.0673,-4.0682,-4.0692,-4.0899,-4.0695,-4.0702,-4.0707,-4.1133,-4.1142,-4.1149,0,0,0,0,0,0,-4.0557,-4.0576,-4.0718,-4.0643,-4.0659,-4.063,-4.0679,-4.067,-4.0696,-4.0678,-4.0671,-4.0656,-4.0668,-4.0681,-4.0803,-4.0899,-4.0706,-4.0713,-4.1125,-4.1136,-4.1145,-4.1317,0,0,0,0,0,0,-4.0552,-4.0576,-4.0643,-4.0646,-4.0663,-4.0829,-4.0685,-4.0676,-4.0709,-4.0694,-4.0707,-4.0702,-4.0664,-4.0792,-4.0811,-4.0907,-4.0719,-4.1117,-4.113,-4.1142,-4.1302,-4.1332,-4.1357,0,0,0,0,0,-4.0545,-4.069,-4.0647,-4.0666,-4.0747,-4.0835,-4.0845,-4.0797,-4.0718,-4.0785,-4.0773,-4.0702,-4.0885,-4.0805,-4.0826,-4.0926,-4.111,-4.1126,-4.1141,-4.129,-4.1326,-4.1356,0,0,0,0,0,0,-4.0701,-4.069,-4.0642,-4.0792,-4.0815,-4.0811,-4.0895,-4.0837,-4.0884,-4.0867,-4.0806,-4.081,-4.0943,-4.0946,-4.0857,-4.1096,-4.0984,-4.1004,-4.109,-4.1124,-4.1151,-4.1148,-4.0726,0,0,0,0,0,-4.0753,-4.0825,-4.0811,-4.0945,-4.0959,-4.0925,-4.0962,-4.0922,-4.0944,-4.0954,-4.0951,-4.0975,-4.1038,-4.1081,-4.1137,-4.1301,-4.1301,-4.1379,-4.1407,-4.1429,-4.1448,-4.1533,-4.1568,-4.12,-4.12,-4.12,0,0,-4.0861,-4.0863,-4.0913,-4.0976,-4.099,-4.1066,-4.0935,-4.1021,-4.1077,-4.0967,-4.1082,-4.108,-4.1103,-4.1247,-4.131,-4.1253,-4.1549,-4.1449,-4.1467,-4.1473,-4.1553,-4.1588,-4.1619,-4.121,-4.1209,-4.1207,0,0,-4.1097,-4.1106,-4.1218,-4.1234,-4.1255,-4.1231,-4.1258,-4.1262,-4.1256,-4.137,-4.1289,-4.1354,-4.1464,-4.1483,-4.1507,-4.1747,-4.1683,-4.1767,-4.191,-4.1994,-4.2023,-4.2048,-4.2134,-4.2165,-4.1785,-4.1786,-4.1786,0,-4.123,-4.1341,-4.1284,-4.1375,-4.1405,-4.1307,-4.142,-4.1438,-4.1477,-4.15,-4.1435,-4.1569,-4.1578,-4.1724,-4.1782,-4.1805,-4.1833,-4.1767,-4.2023,-4.2048,-4.2071,-4.2152,-4.2184,-4.1796,-4.1795,-4.1794,-4.1793,0,-4.1502,-4.158,-4.1668,-4.1707,-4.1746,-4.1848,-4.1806,-4.1853,-4.1809,-4.1792,-4.1908,-4.1915,-4.197,-4.2001,-4.1961,-4.2141,-4.2105,-4.2033,-4.1919,-4.2117,-4.2192,-4.2223,-4.181,-4.1807,-4.1804,-4.1801,0,0,-4.1842,-4.1845,-4.1878,-4.1894,-4.1908,-4.1968,-4.2064,-4.2117,-4.2158,-4.2187,-4.2267,-4.236,-4.2292,-4.232,-4.228,-4.2353,-4.2542,-4.2271,-4.2271,-4.2322,-4.2742,-4.2797,-4.2834,-4.2499,-4.2505,-4.2509,-4.274,0,-4.2074,-4.2239,-4.219,-4.2356,-4.2427,-4.2333,-4.2416,-4.2435,-4.242,-4.2478,-4.2461,-4.2529,-4.2434,-4.245,-4.2518,-4.2505,-4.2626,-4.2487,-4.2573,-4.2577,-4.2572,-4.2873,-4.2933,-4.3151,-4.2769,-4.2774,-4.2777,0,-4.2369,-4.2408,-4.2582,-4.2582,-4.261,-4.2686,-4.273,-4.2786,-4.2804,-4.2788,-4.2817,-4.2761,-4.2855,-4.2739,-4.2867,-4.2774,-4.2805,-4.2804,-4.2811,-4.2819,-4.2691,-4.289,-4.3219,-4.3252,-4.2823,-4.2819,-4.2816,0,-4.26,-4.2696,-4.2812,-4.2828,-4.2831,-4.2887,-4.2891,-4.2902,-4.2936,-4.2974,-4.2995,-4.3044,-4.3071,-4.311,-4.3068,-4.2987,-4.3203,-4.3084,-4.3193,-4.3194,-4.3244,-4.3242,-4.3584,-4.3263,-4.3262,-4.3262,-4.3261,0,-4.2867,-4.2977,-4.2915,-4.2987,-4.3106,-4.3047,-4.3167,-4.316,-4.317,-4.3238,-4.3159,-4.3225,-4.3165,-4.3225,-4.3192,-4.3303,-4.3316,-4.3306,-4.3296,-4.3314,-4.3316,-4.3335,-4.332,-4.327,-4.3268,-4.3267,-4.3265,0,-4.3146,-4.311,-4.3229,-4.3221,-4.3222,-4.331,-4.3303,-4.3369,-4.3347,-4.3434,-4.3451,-4.3418,-4.3484,-4.3445,-4.3513,-4.3491,-4.3636,-4.3605,-4.363,-4.3622,-4.3734,-4.3724,-4.4102,-4.4148,-4.3796,-4.38,-4.3802,0,-4.332,-4.3402,-4.3402,-4.3441,-4.345,-4.3515,-4.3548,-4.3492,-4.3531,-4.3555,-4.3618,-4.3676,-4.3721,-4.3831,-4.3813,-4.3864,-4.3834,-4.3963,-4.3842,-4.3856,-4.3837,-4.3833,-4.3841,-4.3988,-4.3992,-4.3996,-4.3998,0,-4.3632,-4.3608,-4.366,-4.3705,-4.3747,-4.378,-4.3807,-4.3844,-4.3787,-4.3834,-4.39,-4.3934,-4.4002,-4.4062,-4.4104,-4.4108,-4.4045,-4.4036,-4.4064,-4.4084,-4.4095,-4.4091,-4.3698,-4.4028,-4.4025,-4.4023,-4.4021,-4.402,-4.3864,-4.3932,-4.3942,-4.4001,-4.4014,-4.404,-4.4101,-4.4085,-4.4139,-4.419,-4.4153,-4.4231,-4.4243,-4.4294,-4.4305,-4.4365,-4.4314,-4.4354,-4.4365,-4.4376,-4.4392,-4.4084,-4.4373,-4.4372,-4.4371,-4.437,-4.437,0,-4.4172,-4.4173,-4.4228,-4.4266,-4.4313,-4.4246,-4.4271,-4.4315,-4.4384,-4.4401,-4.4445,-4.4521,-4.4577,-4.4562,-4.4613,-4.4664,-4.4636,-4.4679,-4.4675,-4.4677,-4.4435,-4.4406,-4.4701,-4.4701,-4.47,-4.47,-4.47,-4.47,-4.4338,-4.4449,-4.4426,-4.4543,-4.4542,-4.4617,-4.4637,-4.466,-4.4673,-4.476,-4.4806,-4.4795,-4.4799,-4.4849,-4.4897,-4.4891,-4.4914,-4.4968,-4.4952,-4.4727,-4.4694,-4.4663,-4.4636,-4.4974,-4.4974,-4.5189,-4.5191,-4.5193]},{"header":{"parameterUnit":"m.s-1","parameterCategory":1,"la1":30.2991,"la2":30.254,"lo1":-89.0895,"lo2":-89.0444,"dy":0.0017,"dx":0.0017,"nx":28,"ny":28,"refTime":"2024-03-24T03:00:00:Z","depth":0,"parameterNumber":3,"parameterNumberName":"V-component_of_WINDS"},"data":[0,0,0,0,0,0,0,0,0,0,0,0,0,0,0,0,0,0,0,0,0,0,0,0,0,0,0,0,0,0,0,0,0,0,0,0,0,0,0,0,0,0,0,0,0,0,0,0,0,0,0,0,0,0,0,0,0,0,-3.3342,-3.3343,0,-3.3411,-3.3412,-3.3412,-3.3378,-3.3376,-3.3374,-3.3373,-3.344,-3.3444,-3.3447,0,0,0,0,0,0,0,0,0,0,0,0,0,-3.3177,-3.318,-3.3342,-3.3343,-3.3344,-3.3411,-3.3412,-3.3413,-3.3378,-3.3376,-3.3374,-3.3372,-3.3439,-3.3443,-3.3447,0,0,0,0,0,0,0,0,0,0,0,0,0,-3.3247,-3.3181,-3.3342,-3.3335,-3.3335,-3.3411,-3.3412,-3.3413,-3.3379,-3.3376,-3.3373,-3.3371,-3.3438,-3.3443,-3.3448,-3.3534,0,0,-3.3464,-3.3466,0,0,0,0,0,0,0,0,-3.3244,-3.3254,-3.3335,-3.3336,-3.3336,-3.3383,-3.3378,-3.3453,-3.3379,-3.3362,-3.3373,-3.337,-3.3423,-3.343,-3.3448,-3.3537,-3.354,-3.3464,-3.3467,-3.347,-3.3471,0,0,0,0,0,0,0,-3.3239,-3.325,-3.3369,-3.3336,-3.3337,-3.3327,-3.3334,-3.3392,-3.3407,-3.3363,-3.3361,-3.337,-3.3423,-3.3443,-3.345,-3.3541,-3.3464,-3.3469,-3.3472,-3.3474,-3.3701,-3.3703,0,0,0,0,0,0,-3.3235,-3.3247,-3.3367,-3.3371,-3.3282,-3.3332,-3.334,-3.3371,-3.3406,-3.3409,-3.3372,-3.3368,-3.3436,-3.3443,-3.3452,-3.3553,-3.347,-3.3475,-3.3478,-3.3698,-3.3701,-3.3704,0,0,0,0,0,0,-3.3231,-3.3246,-3.3364,-3.3308,-3.3323,-3.3338,-3.3373,-3.3373,-3.3394,-3.3413,-3.3415,-3.339,-3.3434,-3.3444,-3.3513,-3.3555,-3.3477,-3.3482,-3.3694,-3.3699,-3.3703,-3.3757,0,0,0,0,0,0,-3.3227,-3.3245,-3.3279,-3.3309,-3.3326,-3.3426,-3.3375,-3.3377,-3.3403,-3.3398,-3.3431,-3.3433,-3.3433,-3.3506,-3.3518,-3.3561,-3.3486,-3.3691,-3.3696,-3.3701,-3.3752,-3.3763,-3.3772,0,0,0,0,0,-3.3221,-3.3291,-3.3281,-3.3295,-3.3369,-3.3429,-3.3438,-3.3437,-3.3407,-3.344,-3.3452,-3.3432,-3.3548,-3.3513,-3.3527,-3.3571,-3.3688,-3.3695,-3.3701,-3.3747,-3.376,-3.3772,0,0,0,0,0,0,-3.3264,-3.3295,-3.3284,-3.3366,-3.3395,-3.3423,-3.3465,-3.3451,-3.3489,-3.3483,-3.3479,-3.3486,-3.3557,-3.3571,-3.3531,-3.3655,-3.3613,-3.3623,-3.3643,-3.3656,-3.3667,-3.3661,-3.349,0,0,0,0,0,-3.3284,-3.3331,-3.3355,-3.3425,-3.344,-3.345,-3.3476,-3.3473,-3.3502,-3.3514,-3.3531,-3.3559,-3.3601,-3.363,-3.367,-3.3753,-3.3759,-3.379,-3.3801,-3.3809,-3.3817,-3.386,-3.3874,-3.3726,-3.3726,-3.3726,0,0,-3.3324,-3.3347,-3.3377,-3.3435,-3.3457,-3.3504,-3.3461,-3.3513,-3.3548,-3.3522,-3.3587,-3.3601,-3.3632,-3.3708,-3.3742,-3.3721,-3.3859,-3.3817,-3.3824,-3.3828,-3.3868,-3.3882,-3.3895,-3.373,-3.3729,-3.3729,0,0,-3.3421,-3.3444,-3.3504,-3.3527,-3.3561,-3.3567,-3.3581,-3.3611,-3.3618,-3.3684,-3.3665,-3.3705,-3.3779,-3.3802,-3.3823,-3.3926,-3.3909,-3.394,-3.3993,-3.4035,-3.4047,-3.4057,-3.4092,-3.4105,-3.3948,-3.3948,-3.3948,0,-3.3467,-3.3539,-3.3537,-3.3591,-3.3616,-3.3594,-3.3654,-3.3676,-3.3721,-3.3738,-3.3714,-3.3806,-3.3825,-3.3905,-3.393,-3.3948,-3.3963,-3.3936,-3.4045,-3.4056,-3.4065,-3.4099,-3.4112,-3.3951,-3.3951,-3.3951,-3.395,0,-3.3592,-3.3642,-3.3687,-3.3731,-3.3761,-3.3818,-3.3822,-3.3853,-3.3846,-3.3854,-3.392,-3.3942,-3.3986,-3.4005,-3.3999,-3.4083,-3.4069,-3.4046,-3.4004,-3.4083,-3.4114,-3.4127,-3.3956,-3.3955,-3.3954,-3.3953,0,0,-3.372,-3.3761,-3.3778,-3.3796,-3.3831,-3.3869,-3.3923,-3.3967,-3.3992,-3.4023,-3.4067,-3.413,-3.4108,-3.4132,-3.4128,-3.4165,-3.4243,-3.4136,-3.4137,-3.4154,-3.4335,-3.4351,-3.4367,-3.4232,-3.4234,-3.4236,-3.4332,0,-3.3819,-3.3915,-3.3914,-3.4003,-3.4048,-3.4027,-3.4074,-3.4099,-3.4108,-3.4146,-3.4154,-3.4198,-3.4166,-3.418,-3.4216,-3.4226,-3.4279,-3.4219,-3.4271,-3.4273,-3.4263,-3.4383,-3.4402,-3.4491,-3.4344,-3.4346,-3.4348,0,-3.3947,-3.3983,-3.4076,-3.4103,-3.4121,-3.4164,-3.4202,-3.424,-3.4267,-3.427,-3.4296,-3.4286,-3.4339,-3.4295,-3.4368,-3.4327,-3.4348,-3.4356,-3.4359,-3.4363,-3.4315,-3.439,-3.452,-3.4533,-3.4367,-3.4366,-3.4364,0,-3.4029,-3.41,-3.4165,-3.4182,-3.4215,-3.4245,-3.4259,-3.4284,-3.431,-3.4343,-3.4359,-3.4397,-3.4418,-3.4448,-3.4447,-3.4416,-3.452,-3.4477,-3.4522,-3.4522,-3.4545,-3.4543,-3.4679,-3.456,-3.456,-3.4559,-3.4559,0,-3.4139,-3.4197,-3.4202,-3.4242,-3.4305,-3.4302,-3.4364,-3.4375,-3.4397,-3.4437,-3.4422,-3.4459,-3.4457,-3.4495,-3.4494,-3.4553,-3.4563,-3.4566,-3.4565,-3.4567,-3.4566,-3.458,-3.4573,-3.4563,-3.4562,-3.4562,-3.4561,0,-3.4242,-3.4248,-3.4316,-3.4341,-3.4349,-3.4394,-3.4415,-3.4451,-3.4457,-3.4508,-3.452,-3.4529,-3.4573,-3.4575,-3.4625,-3.4625,-3.4696,-3.4688,-3.4687,-3.4685,-3.473,-3.4725,-3.4878,-3.4898,-3.4767,-3.4769,-3.477,0,-3.4311,-3.4355,-3.4384,-3.441,-3.4427,-3.4469,-3.4495,-3.4493,-3.452,-3.4553,-3.4585,-3.4627,-3.4661,-3.473,-3.4741,-3.4778,-3.4771,-3.4822,-3.4776,-3.4776,-3.477,-3.4767,-3.477,-3.4831,-3.4832,-3.4833,-3.4834,0,-3.4433,-3.4433,-3.4471,-3.451,-3.4541,-3.4572,-3.46,-3.4621,-3.4622,-3.4653,-3.4698,-3.4723,-3.4774,-3.4815,-3.4851,-3.4865,-3.4849,-3.4849,-3.4861,-3.4863,-3.4859,-3.486,-3.471,-3.4845,-3.4844,-3.4843,-3.4843,-3.4842,-3.452,-3.4557,-3.4583,-3.4626,-3.4646,-3.4673,-3.4708,-3.4718,-3.4755,-3.4797,-3.4793,-3.4841,-3.4865,-3.4913,-3.4929,-3.4966,-3.4948,-3.4966,-3.4971,-3.4975,-3.4979,-3.4854,-3.4972,-3.4972,-3.4972,-3.4972,-3.4971,0,-3.464,-3.4655,-3.4694,-3.4734,-3.4767,-3.475,-3.478,-3.4808,-3.4851,-3.4875,-3.4908,-3.4958,-3.4997,-3.501,-3.5048,-3.5075,-3.5068,-3.5084,-3.5082,-3.5085,-3.4993,-3.4978,-3.5089,-3.5089,-3.5089,-3.5089,-3.5089,-3.5089,-3.4706,-3.4767,-3.4771,-3.4841,-3.4856,-3.4904,-3.4922,-3.4945,-3.4964,-3.5021,-3.5054,-3.5062,-3.5081,-3.512,-3.5154,-3.5157,-3.5171,-3.519,-3.5189,-3.5103,-3.5092,-3.508,-3.5066,-3.5193,-3.5193,-3.5277,-3.5278,-3.5279]}]]